Location: Newark
(13.8117°N, 3.6025°W)
Time: 01:42:38
(UTC+00:00)

Transit 2A - Visible Passes

Search period start: 21 August 2019 00:00
Search period end: 31 August 2019 00:00
Orbit: 597 x 962 km, 66.7° (Epoch: 20 August)

Date Brightness Start Highest point End Pass type
(mag) Time Alt. Az. Time Alt. Az. Time Alt. Az.
21 Aug 6.7 19:17:39 10° N 19:21:16 25° ENE 19:23:04 19° ESE visible
21 Aug 8.3 21:01:56 10° WNW 21:03:37 13° W 21:03:37 13° W visible
22 Aug 7.5 20:26:32 10° NW 20:30:03 24° WSW 20:31:18 21° SW visible
23 Aug 6.5 19:51:53 10° NW 19:56:02 44° WSW 19:59:08 16° S visible
24 Aug 5.5 19:17:37 10° NNW 19:22:00 85° WSW 19:26:17 10° SSE visible
26 Aug 8.5 19:55:02 10° W 19:56:34 12° WSW 19:58:05 10° SW visible
27 Aug 8.0 19:19:16 10° WNW 19:22:33 21° WSW 19:25:50 10° SSW visible
